Regional Weather Roundup
Issued by NWS

Home | Current Version | Previous Version | Text Only | Print | Product List | Glossary On
Versions: 1 2 3 4 5 6 7 8 9 10 11 12 13 14 15 16 17 18 19 20 21 22 23 24 25 26 27 28 29 30 31 32 33 34 35 36 37 38 39 40 41 42 43 44 45 46 47 48 49 50
000
ASUS44 KFWD 010910
RWRTX
NORTH TEXAS HOURLY WEATHER ROUNDUP
NATIONAL WEATHER SERVICE FORT WORTH TX
300 AM CST SUN FEB 01 2015

NOTE: "FAIR" INDICATES FEW OR NO CLOUDS BELOW 12,000 FEET WITH NO
SIGNIFICANT WEATHER AND/OR OBSTRUCTIONS TO VISIBILITY.

TXZ118-119-011000-
DALLAS/FORT WORTH METROPLEX

CITY           SKY/WX    TMP DP  RH WIND       PRES   REMARKS
DFW AIRPORT    CLOUDY    55  54  96 S9        29.84F
DALLAS LOVE    CLOUDY    56  55  97 S6        29.85F
FTW MEACHAM    CLOUDY    57  55  93 S9        29.84F FOG
DAL-EXECUTIVE  CLOUDY    60  57  89 S7G17     29.85F
FTW-ALLIANCE   CLOUDY    55  55 100 S12       29.84F FOG
FTW-SPINKS     CLOUDY    57  56  95 S3        29.87F
ARLINGTON      CLOUDY    58  54  86 S6        29.86F
GRAND PRAIRIE  CLOUDY    56  56 100 S6        29.88S
ADDISON        CLOUDY   N/A N/A N/A SW5       29.87F
MESQUITE       CLOUDY    57  56  94 SW7       29.87F
LANCASTER      CLOUDY    58  55  91 S10       29.88S FOG
$$

TXZ091>094-102>105-117-120-121-131>134-011000-
NORTH CENTRAL TEXAS

CITY           SKY/WX    TMP DP  RH WIND       PRES   REMARKS
SHRMAN/DENISON CLOUDY    53  53 100 SW10      29.84F FOG
GAINESVILLE    CLOUDY    51  51  99 S7        29.86S FOG
BOWIE          CLOUDY    50  50 100 S6        29.84S FOG
BRIDGEPORT     CLOUDY    53  53 100 SW6       29.86F
DECATUR        CLOUDY    54  54 100 SW8       29.83F FOG
DENTON         CLOUDY    54  53  97 SW6       29.84F FOG
MCKINNEY       CLOUDY    55  54  96 S10       29.84F
GREENVILLE     DRIZZLE   55  54  94 S16       29.86S
ROCKWALL       CLOUDY    55  55  99 S10       29.85F FOG
TERRELL        HVY RAIN  59  56  89 S17       29.86F FOG
WAXAHACHIE     CLOUDY    58  58 100 S12       29.88S FOG
CLEBURNE       CLOUDY    57  57 100 S8        29.87F FOG
GRANBURY       FOG       53  52  94 CALM      29.86F VSB 1
$$

TXZ083>090-098>101-113>116-127>130-139>142-154-155-011000-
WESTERN NORTH TEXAS

CITY           SKY/WX    TMP DP  RH WIND       PRES   REMARKS
WICHITA FALLS  CLOUDY    50  48  93 SW8       29.82S FOG
WF-KICKAPOO    CLOUDY    44  44 100 SW7       29.84F FOG     WCI  40
VERNON         CLOUDY    47  43  88 NW3       29.86R
ABILENE        CLOUDY    54  52  93 SW12      29.85F
ABILENE-DYESS  MOCLDY    55  54  94 SW10      29.83F
BRECKENRIDGE   FOG       53  53  99 S5        29.84S VSB 1/2
GRAHAM         CLOUDY    51  51 100 CALM      29.83S FOG
MINERAL WELLS  FOG       48  47  96 SE5       29.83F VSB 1/4
STEPHENVILLE   CLEAR     55  53  94 CALM      29.87F
COMANCHE       MOCLDY    55  55 100 S12       29.87F
BROWNWOOD      CLOUDY    54  54 100 SE9       29.87F FOG
COLEMAN        CLOUDY    53  53 100 S6        29.86F FOG
$$

TXZ143>147-156>162-174-175-011000-
CENTRAL TEXAS

CITY           SKY/WX    TMP DP  RH WIND       PRES   REMARKS
WACO           LGT RAIN  59  58  96 S8        29.88F FOG
WACO-MCGREGOR  CLOUDY    61  55  82 S13G20    29.89F
HILLSBORO      RAIN      59  57  94 S16       29.87F
CORSICANA      LGT RAIN  60  57  89 S14       29.90F FOG
MEXIA          CLOUDY    58  57  98 S9        29.88F FOG
HEARNE         CLOUDY    59  58  98 SE12      29.92F FOG
CAMERON        CLOUDY    62  61  96 S13       29.89F
TEMPLE         CLOUDY    61  55  82 S15       29.88S
KILLEEN        CLOUDY    61  59  94 S9        29.88F
KILLEEN-SKYLRK CLOUDY    61  55  82 S12       29.87F
FORT HOOD      CLOUDY    61  60  94 S10       29.88S
GATESVILLE     MOCLDY    61  61 100 SW8       29.90S
HAMILTON       CLOUDY    57  57 100 SW7       29.90S
LAMPASAS       CLOUDY    60  59  95 S6        29.88F
$$

TXZ095>097-106>112-122>126-135>138-148>153-164>167-011000-
EAST TEXAS

CITY           SKY/WX    TMP DP  RH WIND       PRES   REMARKS
PARIS          CLOUDY    54  50  87 S13       29.85F
SULPHUR SPRNGS CLOUDY    56  55  96 S14G22    29.87S
MOUNT PLEASANT CLOUDY    55  53  93 S10       29.89S
GILMER         CLOUDY    57  54  88 S9G16     29.89S
MINEOLA        CLOUDY    57  55  94 S14G22    29.89S
TYLER          CLOUDY    58  54  86 S14       29.89S
LONGVIEW       CLOUDY    59  53  80 S15G28    29.88F
MARSHALL       CLOUDY    58  54  84 S12G17    29.93F
ATHENS         CLOUDY    55  55 100 S12G20    29.89F
PALESTINE      LGT RAIN  58  57  97 S8        29.92S
JACKSONVILLE   CLOUDY    57  55  93 MISG      29.93S
HENDERSON      CLOUDY    57  55  90 S13G18    29.91F
NACOGDOCHES    CLOUDY    57  52  82 S7        29.94F
LUFKIN         CLOUDY    60  55  83 SE9       29.93F
$$

SUPPLEMENTAL OBSERVATIONS (CENTRAL)

CITY           SKY/WX    TMP DP  RH WIND       PRES   REMARKS
CADDO GRASSLND   N/A     55  54  94 SW5         N/A
PAT MAYSE LAKE   N/A     52  50  93 S9          N/A
GREENVILLE       N/A     57  54  88 S15G26      N/A
CEDAR HILL       N/A     57  55  94 S7          N/A
PALESTINE        N/A     57  54  88 S9          N/A
MCGREGOR         N/A     61  59  94 SW6         N/A
TEMPLE           N/A     61  59  94 S13         N/A
$$

SUPPLEMENTAL OBSERVATIONS (WEST)

CITY           SKY/WX    TMP DP  RH WIND       PRES   REMARKS
MILLERS CREEK    N/A     50  48  93 SW6         N/A
POSSUM KINGDOM   N/A     54  50  87 SW5         N/A
LBJ GRASSLAND    N/A     54  52  94 CALM        N/A
GRANBURY         N/A     52  48  87 E2          N/A
HAMBY            N/A     54  50  87 SW7         N/A
IVIE RESERVOIR   N/A     52  50  93 S2          N/A
COLORADO BEND    N/A     57  54  88 SW5         N/A
$$

SUPPLEMENTAL OBSERVATIONS (EAST)

CITY           SKY/WX    TMP DP  RH WIND       PRES   REMARKS
CLARKSVILLE      N/A     54  52  94 S12         N/A
TEXARKANA        N/A     54  46  76 S6          N/A
LINDEN           N/A     55  50  82 S6          N/A
GILMER           N/A     57  52  82 S9          N/A
HENDERSON        N/A     57  52  82 S13         N/A
LUFKIN           N/A     57  54  88 MISG        N/A
N SABINE NF      N/A     55  50  82 MISG        N/A
S SABINE NF      N/A     54  50  87 SW1         N/A
$$

SUPPLEMENTAL OBSERVATIONS ARE A COLLECTION OF AUTOMATED INSTRUMENTS
THAT ARE MAINTAINED BY A VARIETY OF FEDERAL AND STATE AGENCIES.
CERTAIN ELEMENTS...SUCH AS HUMIDITY VALUES AND SUSTAINED WIND
SPEEDS...MAY BE APPROXIMATED.



USA.gov is the U.S. government's official web portal to all federal, state and local government web resources and services.